Regional Weather Roundup
Issued by NWS

Home | Current Version | Previous Version | Text Only | Print | Product List | Glossary On
Versions: 1 2 3 4 5 6 7 8 9 10 11 12 13 14 15 16 17 18 19 20 21 22 23 24 25 26 27 28 29 30 31 32 33 34 35 36 37 38 39 40 41 42 43 44 45 46 47 48 49 50
000
ASUS44 KOUN 212011
RWROK

WEATHER ROUNDUP FOR OKLAHOMA
NATIONAL WEATHER SERVICE NORMAN OK
200 PM CST THU NOV 21 2019

NOTE: "FAIR" INDICATES FEW OR NO CLOUDS BELOW 12,000 FEET WITH NO
      SIGNIFICANT WEATHER AND/OR OBSTRUCTIONS TO VISIBILITY.

OKZ001>007-009>012-014-015-017-212100-
NORTHWEST OKLAHOMA AND THE PANHANDLE

CITY           SKY/WX    TMP DP  RH WIND       PRES   REMARKS
GAGE           CLOUDY    46  32  58 N14G26    30.03F
GUYMON         MOSUNNY   44  28  53 NE17G24   30.04F
ENID/WOODRING  PTSUNNY   50  39  66 N22G28    30.02F
$$

OKZ016-021>023-033>039-044-045-212100-
SOUTHWEST OKLAHOMA

CITY           SKY/WX    TMP DP  RH WIND       PRES   REMARKS
LAWTON/REGL    CLOUDY    46  43  89 N20       29.96F FOG
LAWTON/FT SILL LGT RAIN  45  45 100 N21G29    29.94F
FREDERICK      LGT RAIN  46  44  93 N17       29.95S FOG
CLINTON        CLOUDY    44  38  79 N21       29.99F
HOBART           N/A    N/A N/A N/A MISG      29.99F
ALTUS AFB      LGT RAIN  48  39  72 N14       29.99R
$$

OKZ018>020-024>031-212100-
CENTRAL OKLAHOMA

CITY           SKY/WX    TMP DP  RH WIND       PRES   REMARKS
OKLAHOMA CITY  CLOUDY    46  39  76 N15       29.99S
OKC/WILEY POST CLOUDY    47  40  76 N14       30.00F
OKC/TINKER AFB LGT RAIN  45  43  93 N14       29.98S
STILLWATER     CLOUDY    51  39  63 N13G20    30.00F
GUTHRIE        CLOUDY    47  39  74 N10G17    29.99F
$$

OKZ008-013-054>072-212100-
NORTHEAST OKLAHOMA

CITY           SKY/WX    TMP DP  RH WIND       PRES   REMARKS
TULSA          LGT RAIN  52  43  71 N13       29.99F
TULSA/JONES    CLOUDY    54  43  66 N8        29.99F
PONCA CITY     SUNNY     53  38  56 N17       30.02F
BARTLESVILLE   CLOUDY    51  41  68 N9G17     30.02F
MUSKOGEE       CLOUDY    52  48  86 N14       29.98S
$$

OKZ032-040>043-046>053-073>077-212100-
SOUTH CENTRAL/SOUTHEAST OKLAHOMA

CITY           SKY/WX    TMP DP  RH WIND       PRES   REMARKS
ARDMORE/DWNTWN CLOUDY    54  52  94 N7        29.92F
MCALESTER      LGT RAIN  58  56  93 N8        29.93F FOG
$$





USA.gov is the U.S. government's official web portal to all federal, state and local government web resources and services.